Location: Brompton
(51.4000°N, 0.5333°E)
Time: 18:07:34
(UTC+00:00)

USA 215 - Pass Details

Date: 11 May 2021
Orbit: 1100 x 1107 km, 123.0° (Epoch: 14 June)

Event Time Altitude Azimuth Distance (km) Brightness Sun altitude
Rises 21:28:55 0° 86° (E) 3,918 5.9 -13.6°
Reaches altitude 10° 21:31:26 10° 82° (E) 2,961 5.3 -13.8°
Maximum altitude 21:37:47 57° 7° (N) 1,288 3.9 -14.4°
Drops below altitude 10° 21:44:09 10° 291° (WNW) 2,965 6.3 -14.9°
Sets 21:46:41 0° 287° (WNW) 3,925 7.0 -15.1°
